GW0248 Weather Reports


time (UTC)temp
C
wind
direction
speed
KPH
gust
KPH
rain 1hr
cm
rain 24hr
cm
rain mn
cm
humidity
%
barometer
mb
20260505125001 10 273 0.0 6.4 0.00 0.00 0.00 83 1020.6
20260505124501 10 340 0.0 6.4 0.00 0.00 0.00 82 1020.7
20260505124001 10 323 0.0 6.4 0.00 0.00 0.00 80 1020.6
20260505123501 10 5 1.6 6.4 0.00 0.00 0.00 77 1020.5
20260505123000 10 5 3.2 11.3 0.00 0.00 0.00 74 1020.5
20260505122000 12 105 6.4 17.7 0.00 0.00 0.00 65 1020.8
20260505121500 12 88 16.1 17.7 0.00 0.00 0.00 61 1020.5
20260505121001 12 67 3.2 14.5 0.00 0.00 0.00 56 1020.3
20260505120501 12 125 3.2 9.7 0.00 0.00 0.00 52 1020.2
20260505115501 12 211 8.0 14.5 0.00 0.00 0.00 51 1020.2
20260505115001 12 205 4.8 16.1 0.00 0.00 0.00 53 1020.2
20260505114500 12 277 11.3 17.7 0.00 0.00 0.00 56 1020.2
20260505114001 12 267 8.0 24.1 0.00 0.00 0.00 59 1020.1
20260505113000 12 254 6.4 17.7 0.00 0.00 0.00 60 1020.9
20260505112001 12 258 6.4 20.9 0.00 0.00 0.00 59 1021.1
20260505111500 12 273 14.5 17.7 0.00 0.00 0.00 59 1021.4
20260505111001 12 284 9.7 17.7 0.00 0.00 0.00 61 1021.4
20260505110501 12 236 8.0 20.9 0.00 0.00 0.00 62 1021.4
20260505101001 12 252 25.7 25.7 0.00 0.00 0.00 62 1021.2
20260505100459 12 30 12.9 20.9 0.00 0.00 0.00 62 1021.4
20260505100003 12 297 11.3 22.5 0.00 0.00 0.00 61 1021.4
20260505095501 12 331 3.2 22.5 0.00 0.00 0.00 61 1021.5
20260505095001 12 243 1.6 20.9 0.00 0.00 0.00 60 1021.4
20260505094501 12 298 6.4 20.9 0.00 0.00 0.00 60 1021.4
20260505093959 12 334 6.4 20.9 0.00 0.00 0.00 58 1021.6
20260505093500 12 316 1.6 25.7 0.00 0.00 0.00 56 1021.6
20260505093000 12 242 11.3 25.7 0.00 0.00 0.00 58 1021.5
20260505092500 12 279 16.1 24.1 0.00 0.00 0.00 59 1021.5
20260505091001 12 297 6.4 22.5 0.00 0.00 0.00 60 1021.9
20260505090501 12 302 11.3 22.5 0.00 0.00 0.00 59 1021.6
20260505090003 12 24 8.0 33.8 0.00 0.00 0.00 57 1021.8
20260505085500 13 242 6.4 33.8 0.00 0.00 0.00 53 1022.3
20260505084959 13 235 19.3 22.5 0.00 0.00 0.00 52 1022.3
20260505084501 13 150 6.4 33.8 0.00 0.00 0.00 52 1021.9
20260505084000 12 253 9.7 33.8 0.00 0.00 0.00 53 1021.6
20260505083500 12 315 9.7 32.2 0.00 0.00 0.00 53 1021.6
20260505083000 12 304 8.0 32.2 0.00 0.00 0.00 53 1021.9
20260505082500 13 337 6.4 20.9 0.00 0.00 0.00 53 1021.9
20260505082000 13 255 6.4 20.9 0.00 0.00 0.00 52 1022.2
20260505081459 13 284 11.3 25.7 0.00 0.00 0.00 52 1022.2
20260505081001 13 282 14.5 25.7 0.00 0.00 0.00 52 1022.1
20260505080500 13 332 8.0 25.7 0.00 0.00 0.00 52 1022.2
20260505075500 13 285 16.1 25.7 0.00 0.00 0.00 50 1022.1
20260505075000 13 290 16.1 24.1 0.00 0.00 0.00 49 1022.0
20260505074501 13 340 4.8 25.7 0.00 0.00 0.00 48 1022.3
20260505074000 13 268 17.7 25.7 0.00 0.00 0.00 47 1022.3
20260505073500 13 338 11.3 25.7 0.00 0.00 0.00 47 1022.2
20260505073001 13 241 11.3 24.1 0.00 0.00 0.00 46 1022.6
20260505072501 13 188 11.3 32.2 0.00 0.00 0.00 45 1022.4
20260505072000 13 317 17.7 24.1 0.00 0.00 0.00 45 1022.3
20260505071500 13 216 9.7 20.9 0.00 0.00 0.00 43 1022.2
20260505071000 13 283 6.4 24.1 0.00 0.00 0.00 43 1022.3
20260505070500 13 223 9.7 25.7 0.00 0.00 0.00 41 1022.5
20260505070007 13 298 11.3 33.8 0.00 0.00 0.00 40 1022.5
20260505065502 13 281 24.1 33.8 0.00 0.00 0.00 40 1022.5
20260505065003 13 212 1.6 25.7 0.00 0.00 0.00 40 1022.5
20260505064503 13 310 24.1 37.0 0.00 0.00 0.00 40 1022.6
20260505063002 13 314 11.3 33.8 0.00 0.00 0.00 42 1022.5
20260505062502 13 271 9.7 33.8 0.00 0.00 0.00 41 1022.5
20260505062003 13 262 9.7 33.8 0.00 0.00 0.00 42 1022.8
20260505061504 13 186 33.8 33.8 0.00 0.00 0.00 41 1022.7
20260505061003 13 147 8.0 24.1 0.00 0.00 0.00 42 1022.4
20260505060002 13 227 8.0 22.5 0.00 0.00 0.00 42 1022.8
20260505055003 13 261 8.0 22.5 0.00 0.00 0.00 43 1022.9
20260505054502 13 273 4.8 19.3 0.00 0.00 0.00 45 1023.1
20260505054003 13 331 3.2 4.8 0.00 0.00 0.00 46 1023.2
20260505053503 13 122 0.0 11.3 0.00 0.00 0.00 45 1023.2
20260505052503 13 130 0.0 6.4 0.00 0.00 0.00 48 1023.0
20260505052002 13 355 0.0 12.9 0.00 0.00 0.00 47 1023.1
20260505051504 13 355 0.0 12.9 0.00 0.00 0.00 47 1023.4
20260505051002 13 343 3.2 11.3 0.00 0.00 0.00 48 1023.5
20260505050503 13 40 6.4 9.7 0.00 0.00 0.00 48 1023.7
20260505041503 14 302 8.0 16.1 0.00 0.00 0.00 40 1024.0
20260505041003 14 333 1.6 16.1 0.00 0.00 0.00 40 1023.9
20260505040503 14 331 3.2 14.5 0.00 0.00 0.00 39 1023.7
20260505040004 14 329 3.2 17.7 0.00 0.00 0.00 39 1023.5
20260505035503 14 360 4.8 17.7 0.00 0.00 0.00 38 1023.5
20260505034502 15 276 4.8 19.3 0.00 0.00 0.00 38 1023.5
20260505034003 15 51 3.2 16.1 0.00 0.00 0.00 38 1023.4
20260505033502 15 282 8.0 16.1 0.00 0.00 0.00 38 1023.5
20260505033002 15 277 1.6 11.3 0.00 0.00 0.00 38 1023.4
20260505032502 15 287 3.2 11.3 0.00 0.00 0.00 38 1023.4
20260505032003 15 310 6.4 12.9 0.00 0.00 0.00 38 1023.2
20260505031503 15 295 6.4 12.9 0.00 0.00 0.00 37 1023.2
20260505031003 15 211 0.0 12.9 0.00 0.00 0.00 37 1023.1
20260505030502 15 280 12.9 14.5 0.00 0.00 0.00 37 1023.1
20260505030005 15 313 3.2 16.1 0.00 0.00 0.00 36 1022.9
20260505025002 15 34 6.4 14.5 0.00 0.00 0.00 36 1022.8
20260505024502 16 260 1.6 20.9 0.00 0.00 0.00 35 1022.7
20260505024003 16 234 3.2 20.9 0.00 0.00 0.00 35 1022.7
20260505022002 16 291 0.0 11.3 0.00 0.00 0.00 36 1022.7
20260505021502 16 294 1.6 11.3 0.00 0.00 0.00 36 1022.6
20260505021002 16 330 3.2 9.7 0.00 0.00 0.00 36 1022.5
20260505020502 16 322 8.0 9.7 0.00 0.00 0.00 36 1022.3
20260505020006 17 5 3.2 8.0 0.00 0.00 0.00 35 1022.3
20260505015502 17 333 0.0 16.1 0.00 0.00 0.00 34 1022.3
20260505015002 17 323 6.4 16.1 0.00 0.00 0.00 34 1022.1
20260505014001 17 282 6.4 16.1 0.00 0.00 0.00 32 1022.4
20260505013501 17 299 11.3 14.5 0.00 0.00 0.00 33 1022.3
20260505013002 18 304 3.2 14.5 0.00 0.00 0.00 32 1022.3
20260505012501 18 5 1.6 16.1 0.00 0.00 0.00 33 1022.5
20260505012002 18 296 4.8 16.1 0.00 0.00 0.00 32 1022.4
20260505011501 18 339 11.3 14.5 0.00 0.00 0.00 32 1022.5
20260505011001 18 249 1.6 14.5 0.00 0.00 0.00 31 1022.5
20260505010501 18 241 8.0 20.9 0.00 0.00 0.00 31 1022.5
20260505005503 18 258 11.3 20.9 0.00 0.00 0.00 29 1022.4
20260505005001 18 28 16.1 29.0 0.00 0.00 0.00 28 1022.5
20260505004501 19 284 6.4 29.0 0.00 0.00 0.00 27 1022.5
20260505004002 20 316 3.2 20.9 0.00 0.00 0.00 26 1022.3
20260505002503 20 269 11.3 17.7 0.00 0.00 0.00 23 1022.3
20260505001001 20 293 6.4 20.9 0.00 0.00 0.00 24 1022.3
20260505000501 21 360 8.0 24.1 0.00 0.00 0.00 24 1022.3
20260505000005 21 340 11.3 24.1 0.00 0.00 0.00 23 1022.5
20260504235501 21 303 8.0 19.3 0.00 0.00 0.00 22 1022.3
20260504235001 21 313 6.4 19.3 0.00 0.00 0.00 21 1022.1
20260504234502 21 342 11.3 19.3 0.00 0.00 0.00 21 1022.0
20260504234002 21 276 4.8 25.7 0.00 0.00 0.00 21 1022.0
20260504233502 21 338 6.4 25.7 0.00 0.00 0.00 20 1022.0
20260504233002 22 292 16.1 17.7 0.00 0.00 0.00 20 1021.8
20260504232501 21 265 14.5 17.7 0.00 0.00 0.00 20 1021.7
20260504232002 22 330 17.7 17.7 0.00 0.00 0.00 20 1021.6
20260504231501 22 61 6.4 19.3 0.00 0.00 0.00 19 1021.6
20260504231002 22 286 8.0 24.1 0.00 0.00 0.00 19 1021.6
20260504230501 22 299 11.3 24.1 0.00 0.00 0.00 19 1021.8
20260504230005 22 274 14.5 35.4 0.00 0.00 0.00 19 1021.9
20260504225002 22 331 14.5 32.2 0.00 0.00 0.00 19 1022.1
20260504224003 22 169 17.7 25.7 0.00 0.00 0.00 20 1022.2
20260504223501 23 231 11.3 19.3 0.00 0.00 0.00 20 1022.0
20260504223002 23 257 6.4 19.3 0.00 0.00 0.00 21 1021.9
20260504222002 22 282 24.1 32.2 0.00 0.00 0.00 21 1022.1
20260504221002 22 221 30.6 43.5 0.00 0.00 0.00 21 1022.2
20260504220502 22 261 6.4 37.0 0.00 0.00 0.00 21 1022.2
20260504220005 22 247 4.8 37.0 0.00 0.00 0.00 22 1022.1
20260504215501 22 173 14.5 35.4 0.00 0.00 0.00 21 1022.3
20260504215002 23 223 9.7 32.2 0.00 0.00 0.00 22 1022.2
20260504214501 22 240 12.9 32.2 0.00 0.00 0.00 23 1022.1
20260504214002 23 247 20.9 25.7 0.00 0.00 0.00 23 1022.2
20260504212515 23 253 9.7 24.1 0.00 0.00 0.00 24 1022.3
20260504212001 23 288 12.9 17.7 0.00 0.00 0.00 23 1022.4
20260504211509 23 261 9.7 29.0 0.00 0.00 0.00 24 1022.5
20260504211003 22 286 16.1 29.0 0.00 0.00 0.00 24 1022.5
20260504210004 22 229 16.1 20.9 0.00 0.00 0.00 26 1022.8
20260504205501 22 227 11.3 33.8 0.00 0.00 0.00 25 1022.7
20260504205001 23 281 16.1 33.8 0.00 0.00 0.00 24 1023.2
20260504204501 23 225 11.3 30.6 0.00 0.00 0.00 24 1023.2
20260504204001 23 238 4.8 30.6 0.00 0.00 0.00 24 1023.1
20260504202501 23 232 16.1 33.8 0.00 0.00 0.00 23 1023.2
20260504202001 23 227 16.1 32.2 0.00 0.00 0.00 22 1023.3
20260504201501 23 211 24.1 32.2 0.00 0.00 0.00 22 1023.2
20260504201001 22 268 12.9 24.1 0.00 0.00 0.00 22 1023.1
20260504195501 22 241 12.9 30.6 0.00 0.00 0.00 22 1023.3
20260504195001 22 169 14.5 30.6 0.00 0.00 0.00 23 1023.3
20260504194002 22 232 17.7 32.2 0.00 0.00 0.00 20 1023.5
20260504193501 22 176 4.8 41.8 0.00 0.00 0.00 20 1023.3
20260504193002 22 246 22.5 41.8 0.00 0.00 0.00 20 1023.3
20260504192501 22 234 20.9 30.6 0.00 0.00 0.00 19 1023.5
20260504192003 22 267 16.1 30.6 0.00 0.00 0.00 22 1023.4
20260504191501 22 160 19.3 33.8 0.00 0.00 0.00 21 1023.5
20260504191001 22 196 19.3 33.8 0.00 0.00 0.00 20 1023.7
20260504190501 22 194 6.4 30.6 0.00 0.00 0.00 21 1023.7
20260504190010 22 246 14.5 35.4 0.00 0.00 0.00 20 1023.8
20260504185502 22 215 9.7 38.6 0.00 0.00 0.00 21 1023.8
20260504185001 22 183 16.1 38.6 0.00 0.00 0.00 20 1023.6
20260504183501 22 159 22.5 35.4 0.00 0.00 0.00 20 1023.6
20260504183009 22 218 11.3 35.4 0.00 0.00 0.00 20 1024.0
20260504182001 22 227 8.0 41.8 0.00 0.00 0.00 19 1024.0
20260504181501 22 197 12.9 29.0 0.00 0.00 0.00 19 1024.0
20260504181001 22 238 9.7 32.2 0.00 0.00 0.00 19 1024.1
20260504180501 22 286 16.1 33.8 0.00 0.00 0.00 21 1023.9
20260504180005 22 189 6.4 35.4 0.00 0.00 0.00 21 1023.9
20260504175501 22 178 8.0 35.4 0.00 0.00 0.00 21 1023.8
20260504175001 22 145 6.4 20.9 0.00 0.00 0.00 22 1023.8
20260504174501 22 250 3.2 25.7 0.00 0.00 0.00 21 1023.7
20260504174001 22 288 11.3 25.7 0.00 0.00 0.00 21 1023.9
20260504173501 22 242 12.9 24.1 0.00 0.00 0.00 20 1024.0
20260504173001 22 227 6.4 20.9 0.00 0.00 0.00 22 1024.0
20260504172501 21 252 8.0 22.5 0.00 0.00 0.00 22 1024.0
20260504172001 22 197 8.0 22.5 0.00 0.00 0.00 23 1024.1
20260504171501 22 238 11.3 25.7 0.00 0.00 0.00 24 1024.1
20260504170501 21 265 8.0 22.5 0.00 0.00 0.00 21 1024.1
20260504150500 17 198 11.3 22.5 0.00 0.00 0.00 29 1024.1
20260504141000 16 187 11.3 29.0 0.00 0.00 0.00 29 1024.1
20260504140501 16 250 3.2 19.3 0.00 0.00 0.00 32 1023.8